This is the latest recevied weather packets stored in our database for station/object DL2DHM-13. If no packets are shown the sender has not sent any weather packets the latest 10 day(s).
| Time | Temp. | Humidity | Pressure | Rain* | Wind** | Luminosity | Snow |
|---|---|---|---|---|---|---|---|
| 1777802705 | 23.33° C | 44% | 1010.1 hPa | 0 mm | - | 483 W/m² | - |
| 1777800356 | 22.78° C | 52% | 1010.2 hPa | 0 mm | - | 636 W/m² | - |
| 1777799453 | 21.67° C | 60% | 1010.2 hPa | 0 mm | - | 668 W/m² | - |
| 1777797963 | 19.44° C | 64% | 1010.4 hPa | 0 mm | - | 316 W/m² | - |
| 1777797644 | 19.44° C | 66% | 1010.4 hPa | 0 mm | - | 454 W/m² | - |
| 1777796743 | 18.89° C | 66% | 1010.6 hPa | 0 mm | - | 278 W/m² | - |
| 1777793438 | 17.22° C | 71% | 1010.6 hPa | 0 mm | - | 396 W/m² | - |
| 1777791628 | 16.67° C | 73% | 1010.3 hPa | 0 mm | - | 320 W/m² | - |
| 1777791325 | 16.11° C | 74% | 1010.3 hPa | 0 mm | - | 343 W/m² | - |
| 1777788921 | 14.44° C | 82% | 1010.6 hPa | 0 mm | - | 142 W/m² | - |
| 1777787716 | 13.89° C | 86% | 1010.7 hPa | 0 mm | - | 104 W/m² | - |
| 1777786814 | 12.78° C | 89% | 1010.7 hPa | 0 mm | - | 95 W/m² | - |
| 1777785611 | 12.22° C | 91% | 1010.6 hPa | 0 mm | - | 79 W/m² | - |
| 1777785311 | 12.22° C | 91% | 1010.6 hPa | 0 mm | - | 76 W/m² | - |
| 1777784407 | 11.67° C | 92% | 1010.6 hPa | 0 mm | - | 56 W/m² | - |
| 1777781456 | 11.11° C | 93% | 1011.1 hPa | 0 mm | - | 11 W/m² | - |
| 1777781156 | 10.56° C | 93% | 1011.1 hPa | 0 mm | - | 9 W/m² | - |
| 1777778453 | 10.56° C | 93% | 1011.2 hPa | 0 mm | - | 0 W/m² | - |
| 1777776356 | 10° C | 91% | 1011.1 hPa | 0 mm | - | 0 W/m² | - |
| 1777776048 | 10° C | 91% | 1011 hPa | 0 mm | - | 0 W/m² | - |
| 1777775145 | 10.56° C | 91% | 1011.2 hPa | 0 mm | - | 0 W/m² | - |
| 1777773942 | 10.56° C | 90% | 1011.4 hPa | 0 mm | - | 0 W/m² | - |
| 1777773641 | 11.11° C | 89% | 1011.4 hPa | 0 mm | - | 0 W/m² | - |
| 1777773037 | 11.67° C | 90% | 1011.5 hPa | 0 mm | - | 0 W/m² | - |
| 1777772744 | 12.22° C | 90% | 1011.5 hPa | 0 mm | - | 0 W/m² | - |
* Rain latest hour (hover to see other rain measurements)
** Current wind speed in m/s (hover to see current wind gust speed)